Regional Weather Roundup
Issued by NWS

Home | Current Version | Previous Version | Graphics & Text | Print | Product List | Glossary On
Versions: 1 2 3 4 5 6 7 8 9 10 11 12 13 14 15 16 17 18 19 20 21 22 23 24 25 26 27 28 29 30 31 32 33 34 35 36 37 38 39 40 41 42 43 44 45 46 47 48 49 50
734
ASUS44 KLIX 261605
RWRLA
LOUISIANA WEATHER ROUNDUP
NATIONAL WEATHER SERVICE NEW ORLEANS LA
1000 AM CST MON JAN 26 2015

NOTE: "FAIR" INDICATES FEW OR NO CLOUDS BELOW 12,000 FEET WITH NO
      SIGNIFICANT WEATHER AND/OR OBSTRUCTIONS TO VISIBILITY.
      SKY/WX - SKY CONDITION AND SIGNIFICANT WEATHER.
      TMP - AIR TEMPERATURE.    DP   - DEWPOINT TEMPERATURE.
      RH  - RELATIVE HUMIDITY.  PRES - PRESSURE.
      HX  - HEAT INDEX.         WCI  - WIND CHILL INDEX.

*  THESE STATIONS ARE NOT NWS OR FAA STATIONS AND ARE NOT UNDER
   NWS QUALITY CONTROL.

LAZ040-048-061>063-065-066-069-261700-
SOUTHEAST LOUISIANA

CITY           SKY/WX    TMP DP  RH WIND       PRES   REMARKS
N.O. AUDUBON   NOT AVBL
N.O. INTL ARPT MOSUNNY   52  35  52 N14G23    30.16R
N.O. LAKEFRONT SUNNY     53  37  54 NW20      30.16R
N.O. DOWNTOWN* FAIR      52  32  46 NW7G18    30.15S
SLIDELL        SUNNY    N/A N/A N/A NW10G20   30.13R
BATON ROUGE    SUNNY     52  33  48 N12       30.18R
BOOTHVILLE     SUNNY     52  38  58 N17G25    30.14S
BELLE CHASSE   SUNNY     54  34  46 N16G25    30.14R
BOGALUSA*        N/A     53  37  54 N13G18    30.16R
GALLIANO*      SUNNY     55  37  50 MISG      30.16R
NEW ROADS*     FAIR      51  34  52 NW13      30.19S
GONZALES*      FAIR      52  35  51 N15G22    30.17R
HAMMOND*       SUNNY     52  34  50 N15G21    30.16S
HOUMA*         SUNNY     55  37  50 NW14      30.15S
PORT FOURCHON* SUNNY     54  36  50 N13G20    30.19R

$$

LAZ041-044-053-054-261700-
SOUTHWEST LOUISIANA

CITY           SKY/WX    TMP DP  RH WIND       PRES   REMARKS
LAKE CHARLES   SUNNY     54  35  48 N9        30.21R
LAFAYETTE      SUNNY     53  35  50 N17       30.19S
PATTERSON      SUNNY     54  34  47 N17G24    30.17S
SALT POINT       N/A     54  37  52 N9        30.16R
NEW IBERIA     SUNNY     54  36  50 N17       30.18S
CHENAULT AIRPK SUNNY     54  34  47 N12G22    30.21R

$$

LAZ027-028-261700-
CENTRAL LOUISIANA

CITY           SKY/WX    TMP DP  RH WIND       PRES   REMARKS
FORT POLK      SUNNY     50  34  53 N9        30.20S
ALEXANDRIA INT SUNNY     50  35  56 NW8       30.20R
ALEXANDRIA     SUNNY     50  34  54 VRB3      30.20R

$$

LAZ001-002-261700-
NORTHWEST LOUISIANA

CITY           SKY/WX    TMP DP  RH WIND       PRES   REMARKS
SHREVEPORT     SUNNY     49  34  56 NW6       30.21R
BARKSDALE AFB  SUNNY     47  33  58 N10       30.22R
DTN SHREVEPORT SUNNY     48  32  53 VRB6      30.22R

$$

LAZ014-016-261700-
NORTHEAST LOUISIANA

CITY           SKY/WX    TMP DP  RH WIND       PRES   REMARKS
MONROE         SUNNY     49  35  58 N10       30.20R
TALLULAH       CLOUDY    47  33  58 NW10G17   30.19R

$$




USA.gov is the U.S. government's official web portal to all federal, state and local government web resources and services.